Regional Weather Roundup
Issued by NWS

Home | Current Version | Previous Version | Graphics & Text | Print | Product List | Glossary On
Versions: 1 2 3 4 5 6 7 8 9 10 11 12 13 14 15 16 17 18 19 20 21 22 23 24 25 26 27 28 29 30 31 32 33 34 35 36 37 38 39 40 41 42 43 44 45 46 47 48 49 50
899
ASUS45 KCYS 240810
RWRWY

WYOMING REGIONAL WEATHER ROUNDUP
NATIONAL WEATHER SERVICE CHEYENNE WY
200 AM MDT MON APR 24 2017

NOTE:  "FAIR" INDICATES FEW OR NO CLOUDS BELOW 12,000 FEET
WITH NO SIGNIFICANT WEATHER AND/OR OBSTRUCTIONS TO VISIBILITY.

WYZ001-240900-
YELLOWSTONE NATIONAL PARK

CITY           SKY/WX    TMP DP  RH WIND       PRES   REMARKS
LK YELLOWSTONE   N/A     24  23  96 CALM      29.81F
W YELLOWSTONE  NOT AVBL

$$
WYZ002>013-054>058-071-098>099-240900-
NORTHERN WYOMING

CITY           SKY/WX    TMP DP  RH WIND       PRES   REMARKS
JACKSON        CLOUDY    34  34 100 E3        29.78F
CODY           FAIR      40  36  86 SE9       29.73F WCI  34
GREYBULL       FAIR      47  36  65 W15       29.67F
WORLAND        FAIR      40  38  93 S5        29.70S
SHERIDAN       MOCLDY    44  41  89 W10       29.68F
BUFFALO        FAIR      45  38  76 NW15G26   29.68S
GILLETTE       CLOUDY    48  44  86 NW16      29.65R
HULETT         PTSUNNY   43  41  93 NW6       29.65R
NEWCASTLE      PTSUNNY   52  41  66 NW10G17   29.63S

$$
WYZ014>020-022>026-101>103-240900-
CENTRAL WYOMING

CITY           SKY/WX    TMP DP  RH WIND       PRES   REMARKS
BIG PINEY      FAIR      28  23  81 CALM      29.83S
PINEDALE       FAIR      30  27  86 CALM      29.84S
DUBOIS         PTSUNNY   32  27  80 W7        29.77F WCI  26
LANDER         FAIR      44  25  47 W13       29.73F
RIVERTON       FAIR      42  28  57 W13       29.74S
CASPER         CLOUDY    49  37  63 W13G22    29.71S
DOUGLAS        MOCLDY    51  39  63 W13       29.68F

$$
WYZ021-027>030-104>119-240900-
SOUTHERN WYOMING

CITY           SKY/WX    TMP DP  RH WIND       PRES   REMARKS
EVANSTON       FAIR      36  30  79 S8        29.85F WCI  30
KEMMERER         N/A     36  30  80 CALM      29.85S
ROCK SPRINGS   FAIR      39  35  86 SW12      29.83F WCI  32
DIXON          HVY RAIN  42  38  89 NW12      29.92R
RAWLINS        FAIR      40  36  86 SW13      29.82F WCI  32
SARATOGA       RAIN      37  37 100 W12       29.86S WCI  30
LARAMIE        CLOUDY    41  34  76 NW15      29.78S
CHEYENNE       FAIR      50  32  50 NW15G25   29.72S
TORRINGTON     FAIR      54  38  54 NW13      29.61S
PINE BLUFFS    FAIR      48  36  61 NW16G23   29.66S

$$




USA.gov is the U.S. government's official web portal to all federal, state and local government web resources and services.